Location: Newark
(47.5167°N, 8.8000°E)
Time: 23:58:44
(UTC+00:00)

N. Korean satellite - Visible Passes

Search period start: 22 October 2019 00:00
Search period end: 01 November 2019 00:00
Orbit: 455 x 508 km, 97.2° (Epoch: 22 October)

Date Brightness Start Highest point End Pass type
(mag) Time Alt. Az. Time Alt. Az. Time Alt. Az.
22 Oct 10.5 17:45:57 10° WSW 17:46:43 11° W 17:47:31 10° WNW visible
23 Oct 7.9 05:05:49 10° NNE 05:09:21 47° E 05:12:53 10° S visible
23 Oct 9.6 17:18:33 10° SW 17:21:11 20° W 17:23:51 10° NW visible
24 Oct 9.3 04:40:54 10° NE 04:43:55 24° E 04:46:58 10° SSE visible
24 Oct 8.1 16:52:28 10° S 16:55:44 40° W 16:59:03 10° NNW visible
25 Oct 10.2 04:16:38 10° ENE 04:18:25 13° E 04:20:12 10° ESE visible
26 Oct 6.8 05:23:09 10° NNE 05:26:49 78° E 05:30:31 10° S visible
26 Oct 10.1 17:37:03 10° WSW 17:38:46 13° W 17:40:30 10° WNW visible
27 Oct 8.3 04:58:00 10° NNE 05:01:28 38° E 05:04:56 10° SSE visible
27 Oct 9.2 17:10:20 10° SSW 17:13:14 25° W 17:16:11 10° NW visible
28 Oct 9.6 04:33:13 10° NE 04:36:01 20° E 04:38:49 10° SE visible
28 Oct 7.6 16:44:25 10° S 16:47:47 50° W 16:51:15 10° NNW visible
29 Oct 10.4 04:09:28 10° ENE 04:10:27 11° E 04:11:27 10° ESE visible
30 Oct 7.2 05:15:16 10° NNE 05:18:56 63° E 05:22:37 10° S visible
30 Oct 9.9 17:28:31 10° SW 17:30:46 16° W 17:33:03 10° NW visible
31 Oct 8.7 04:50:11 10° NNE 04:53:32 31° E 04:56:52 10° SSE visible
31 Oct 8.7 17:02:08 10° SSW 17:05:15 31° W 17:08:27 10° NNW visible
